Year,Month,Day,Hour,Minute,Value (Times are PST for windspeed in km/hr)
2022,04,04,00,00,1.80
2022,04,04,00,01,3.30
2022,04,04,00,02,0.10
2022,04,04,00,03,0.40
2022,04,04,00,04,1.50
2022,04,04,00,05,1.80
2022,04,04,00,06,4.50
2022,04,04,00,07,2.80
2022,04,04,00,08,0.30
2022,04,04,00,09,3.90
2022,04,04,00,10,2.20
2022,04,04,00,11,0.10
2022,04,04,00,12,1.00
2022,04,04,00,13,0.50
2022,04,04,00,14,1.20
2022,04,04,00,15,2.60
2022,04,04,00,16,3.10
2022,04,04,00,17,2.70
2022,04,04,00,18,0.90
2022,04,04,00,19,1.20
2022,04,04,00,20,0.90
2022,04,04,00,21,0.20
2022,04,04,00,22,3.70
2022,04,04,00,23,1.50
2022,04,04,00,24,0.70
2022,04,04,00,25,3.20
2022,04,04,00,26,0.40
2022,04,04,00,27,2.60
2022,04,04,00,28,3.10
2022,04,04,00,29,7.10
2022,04,04,00,30,2.10
2022,04,04,00,31,2.10
2022,04,04,00,32,2.80
2022,04,04,00,33,0.60
2022,04,04,00,34,4.30
2022,04,04,00,35,1.30
2022,04,04,00,36,6.40
2022,04,04,00,37,4.90
2022,04,04,00,38,3.10
2022,04,04,00,39,2.50
2022,04,04,00,40,3.40
2022,04,04,00,41,3.30
2022,04,04,00,42,4.10
2022,04,04,00,43,3.90
2022,04,04,00,44,4.40
2022,04,04,00,45,2.90
2022,04,04,00,46,2.90
2022,04,04,00,47,3.10
2022,04,04,00,48,3.70
2022,04,04,00,49,1.60
2022,04,04,00,50,3.10
2022,04,04,00,51,3.70
2022,04,04,00,52,6.60
2022,04,04,00,53,0.90
2022,04,04,00,54,1.80
2022,04,04,00,55,2.70
2022,04,04,00,56,0.20
2022,04,04,00,57,1.50
2022,04,04,00,58,4.10
2022,04,04,00,59,4.40
2022,04,04,01,00,3.50
2022,04,04,01,01,2.00
2022,04,04,01,02,2.50
2022,04,04,01,03,3.10
2022,04,04,01,04,5.00
2022,04,04,01,05,2.50
2022,04,04,01,06,4.00
2022,04,04,01,07,3.70
2022,04,04,01,08,7.50
2022,04,04,01,09,3.10
2022,04,04,01,10,1.30
2022,04,04,01,11,4.70
2022,04,04,01,12,8.80
2022,04,04,01,13,5.10
2022,04,04,01,14,2.30
2022,04,04,01,15,1.60
2022,04,04,01,16,1.90
2022,04,04,01,17,5.00
2022,04,04,01,18,6.90
2022,04,04,01,19,5.70
2022,04,04,01,20,6.40
2022,04,04,01,21,4.70
2022,04,04,01,22,7.00
2022,04,04,01,23,1.60
2022,04,04,01,24,6.70
2022,04,04,01,25,4.80
2022,04,04,01,26,11.00
2022,04,04,01,27,9.40
2022,04,04,01,28,2.60
2022,04,04,01,29,5.50
2022,04,04,01,30,11.00
2022,04,04,01,31,5.70
2022,04,04,01,32,2.20
2022,04,04,01,33,4.90
2022,04,04,01,34,4.80
2022,04,04,01,35,7.00
2022,04,04,01,36,7.60
2022,04,04,01,37,3.90
2022,04,04,01,38,5.30
2022,04,04,01,39,6.10
2022,04,04,01,40,5.40
2022,04,04,01,41,5.30
2022,04,04,01,42,6.20
2022,04,04,01,43,7.40
2022,04,04,01,44,6.10
2022,04,04,01,45,3.10
2022,04,04,01,46,3.00
2022,04,04,01,47,3.10
2022,04,04,01,48,7.50
2022,04,04,01,49,6.80
2022,04,04,01,50,6.20
2022,04,04,01,51,3.40
2022,04,04,01,52,3.90
2022,04,04,01,53,5.30
2022,04,04,01,54,4.80
2022,04,04,01,55,2.90
2022,04,04,01,56,5.80
2022,04,04,01,57,6.40
2022,04,04,01,58,6.10
2022,04,04,01,59,3.00
2022,04,04,02,00,4.60
2022,04,04,02,01,5.20
2022,04,04,02,02,4.80
2022,04,04,02,03,0.60
2022,04,04,02,04,2.10
2022,04,04,02,05,4.70
2022,04,04,02,06,4.40
2022,04,04,02,07,2.60
2022,04,04,02,08,4.60
2022,04,04,02,09,5.10
2022,04,04,02,10,3.20
2022,04,04,02,11,3.40
2022,04,04,02,12,5.60
2022,04,04,02,13,7.50
2022,04,04,02,14,4.70
2022,04,04,02,15,5.30
2022,04,04,02,16,7.70
2022,04,04,02,17,8.10
2022,04,04,02,18,5.90
2022,04,04,02,19,1.70
2022,04,04,02,20,4.80
2022,04,04,02,21,4.60
2022,04,04,02,22,5.00
2022,04,04,02,23,5.00
2022,04,04,02,24,6.30
2022,04,04,02,25,5.60
2022,04,04,02,26,6.70
2022,04,04,02,27,8.10
2022,04,04,02,28,7.20
2022,04,04,02,29,7.30
2022,04,04,02,30,9.90
2022,04,04,02,31,10.20
2022,04,04,02,32,9.40
2022,04,04,02,33,6.30
2022,04,04,02,34,8.20
2022,04,04,02,35,8.40
2022,04,04,02,36,9.40
2022,04,04,02,37,10.40
2022,04,04,02,38,11.50
2022,04,04,02,39,10.30
2022,04,04,02,40,8.40
2022,04,04,02,41,10.00
2022,04,04,02,42,12.30
2022,04,04,02,43,12.00
2022,04,04,02,44,10.80
2022,04,04,02,45,10.70
2022,04,04,02,46,9.80
2022,04,04,02,47,12.30
2022,04,04,02,48,13.30
2022,04,04,02,49,8.80
2022,04,04,02,50,13.60
2022,04,04,02,51,9.40
2022,04,04,02,52,11.80
2022,04,04,02,53,13.80
2022,04,04,02,54,10.20
2022,04,04,02,55,14.90
2022,04,04,02,56,10.80
2022,04,04,02,57,13.00
2022,04,04,02,58,9.90
2022,04,04,02,59,10.60
2022,04,04,03,00,11.00
2022,04,04,03,01,12.20
2022,04,04,03,02,9.20
2022,04,04,03,03,13.20
2022,04,04,03,04,12.40
2022,04,04,03,05,11.70
2022,04,04,03,06,12.00
2022,04,04,03,07,12.50
2022,04,04,03,08,11.50
2022,04,04,03,09,10.60
2022,04,04,03,10,10.50
2022,04,04,03,11,9.90
2022,04,04,03,12,10.90
2022,04,04,03,13,10.40
2022,04,04,03,14,11.80
2022,04,04,03,15,9.80
2022,04,04,03,16,12.00
2022,04,04,03,17,9.90
2022,04,04,03,18,13.30
2022,04,04,03,19,13.70
2022,04,04,03,20,11.00
2022,04,04,03,21,15.50
2022,04,04,03,22,14.20
2022,04,04,03,23,17.30
2022,04,04,03,24,16.90
2022,04,04,03,25,14.40
2022,04,04,03,26,13.80
2022,04,04,03,27,16.90
2022,04,04,03,28,12.60
2022,04,04,03,29,12.50
2022,04,04,03,30,13.10
2022,04,04,03,31,13.60
2022,04,04,03,32,16.90
2022,04,04,03,33,19.70
2022,04,04,03,34,16.60
2022,04,04,03,35,19.20
2022,04,04,03,36,19.90
2022,04,04,03,37,18.20
2022,04,04,03,38,19.30
2022,04,04,03,39,19.10
2022,04,04,03,40,18.70
2022,04,04,03,41,11.30
2022,04,04,03,42,16.90
2022,04,04,03,43,14.00
2022,04,04,03,44,13.10
2022,04,04,03,45,8.80
2022,04,04,03,46,8.40
2022,04,04,03,47,14.80
2022,04,04,03,48,13.50
2022,04,04,03,49,9.70
2022,04,04,03,50,10.50
2022,04,04,03,51,9.90
2022,04,04,03,52,11.10
2022,04,04,03,53,13.00
2022,04,04,03,54,13.20
2022,04,04,03,55,14.70
2022,04,04,03,56,15.90
2022,04,04,03,57,16.60
2022,04,04,03,58,16.50
2022,04,04,03,59,15.50
2022,04,04,04,00,15.70
2022,04,04,04,01,19.50
2022,04,04,04,02,15.10
2022,04,04,04,03,21.60
2022,04,04,04,04,21.30
2022,04,04,04,05,17.60
2022,04,04,04,06,16.50
2022,04,04,04,07,18.10
2022,04,04,04,08,19.50
2022,04,04,04,09,16.80
2022,04,04,04,10,13.20
2022,04,04,04,11,19.60
2022,04,04,04,12,19.40
2022,04,04,04,13,13.90
2022,04,04,04,14,17.10
2022,04,04,04,15,15.90
2022,04,04,04,16,15.10
2022,04,04,04,17,18.70
2022,04,04,04,18,15.40
2022,04,04,04,19,13.30
2022,04,04,04,20,19.70
2022,04,04,04,21,13.60
2022,04,04,04,22,18.20
2022,04,04,04,23,17.60
2022,04,04,04,24,19.60
2022,04,04,04,25,17.00
2022,04,04,04,26,15.50
2022,04,04,04,27,17.30
2022,04,04,04,28,17.60
2022,04,04,04,29,18.70
2022,04,04,04,30,13.30
2022,04,04,04,31,12.40
2022,04,04,04,32,18.90
2022,04,04,04,33,15.70
2022,04,04,04,34,12.40
2022,04,04,04,35,11.50
2022,04,04,04,36,16.10
2022,04,04,04,37,13.70
2022,04,04,04,38,13.40
2022,04,04,04,39,12.20
2022,04,04,04,40,15.10
2022,04,04,04,41,12.20
2022,04,04,04,42,14.60
2022,04,04,04,43,15.70
2022,04,04,04,44,13.60
2022,04,04,04,45,14.60
2022,04,04,04,46,11.50
2022,04,04,04,47,12.90
2022,04,04,04,48,12.00
2022,04,04,04,49,15.40
2022,04,04,04,50,13.00
2022,04,04,04,51,19.60
2022,04,04,04,52,15.60
2022,04,04,04,53,15.70
2022,04,04,04,54,14.40
2022,04,04,04,55,13.50
2022,04,04,04,56,15.30
2022,04,04,04,57,14.50
2022,04,04,04,58,14.70
2022,04,04,04,59,16.70
2022,04,04,05,00,15.60
2022,04,04,05,01,13.60
2022,04,04,05,02,15.00
2022,04,04,05,03,16.60
2022,04,04,05,04,16.90
2022,04,04,05,05,13.60
2022,04,04,05,06,20.80
2022,04,04,05,07,21.10
2022,04,04,05,08,22.20
2022,04,04,05,09,18.30
2022,04,04,05,10,23.20
2022,04,04,05,11,23.40
2022,04,04,05,12,20.80
2022,04,04,05,13,19.70
2022,04,04,05,14,20.70
2022,04,04,05,15,26.10
2022,04,04,05,16,22.10
2022,04,04,05,17,22.80
2022,04,04,05,18,20.70
2022,04,04,05,19,22.90
2022,04,04,05,20,20.00
2022,04,04,05,21,26.70
2022,04,04,05,22,23.40
2022,04,04,05,23,21.60
2022,04,04,05,24,19.70
2022,04,04,05,25,19.20
2022,04,04,05,26,23.40
2022,04,04,05,27,19.80
2022,04,04,05,28,18.60
2022,04,04,05,29,15.90
2022,04,04,05,30,19.20
2022,04,04,05,31,17.70
2022,04,04,05,32,14.70
2022,04,04,05,33,16.30
2022,04,04,05,34,20.20
2022,04,04,05,35,20.20
2022,04,04,05,36,14.70
2022,04,04,05,37,17.80
2022,04,04,05,38,16.00
2022,04,04,05,39,18.80
2022,04,04,05,40,17.60
2022,04,04,05,41,16.30
2022,04,04,05,42,16.80
2022,04,04,05,43,20.30
2022,04,04,05,44,21.60
2022,04,04,05,45,20.50
2022,04,04,05,46,20.00
2022,04,04,05,47,13.70
2022,04,04,05,48,14.40
2022,04,04,05,49,20.30
2022,04,04,05,50,19.20
2022,04,04,05,51,17.50
2022,04,04,05,52,16.60
2022,04,04,05,53,14.90
2022,04,04,05,54,17.70
2022,04,04,05,55,17.30
2022,04,04,05,56,14.00
2022,04,04,05,57,12.80
2022,04,04,05,58,13.80
2022,04,04,05,59,12.70
2022,04,04,06,00,13.20
2022,04,04,06,01,21.00
2022,04,04,06,02,21.30
2022,04,04,06,03,23.50
2022,04,04,06,04,16.00
2022,04,04,06,05,16.60
2022,04,04,06,06,16.20
2022,04,04,06,07,14.40
2022,04,04,06,08,20.60
2022,04,04,06,09,19.10
2022,04,04,06,10,23.90
2022,04,04,06,11,19.30
2022,04,04,06,12,15.20
2022,04,04,06,13,17.80
2022,04,04,06,14,17.60
2022,04,04,06,15,18.90
2022,04,04,06,16,17.30
2022,04,04,06,17,15.60
2022,04,04,06,18,15.10
2022,04,04,06,19,19.20
2022,04,04,06,20,16.40
2022,04,04,06,21,17.30
2022,04,04,06,22,14.50
2022,04,04,06,23,17.50
2022,04,04,06,24,16.60
2022,04,04,06,25,13.90
2022,04,04,06,26,13.50
2022,04,04,06,27,16.80
2022,04,04,06,28,17.70
2022,04,04,06,29,14.60
2022,04,04,06,30,20.50
2022,04,04,06,31,15.90
2022,04,04,06,32,15.20
2022,04,04,06,33,14.90
2022,04,04,06,34,18.70
2022,04,04,06,35,16.30
2022,04,04,06,36,13.20
2022,04,04,06,37,13.50
2022,04,04,06,38,16.10
2022,04,04,06,39,16.90
2022,04,04,06,40,17.30
2022,04,04,06,41,15.30
2022,04,04,06,42,16.50
2022,04,04,06,43,15.00
2022,04,04,06,44,17.10
2022,04,04,06,45,17.50
2022,04,04,06,46,12.10
2022,04,04,06,47,12.90
2022,04,04,06,48,9.40
2022,04,04,06,49,16.30
2022,04,04,06,50,17.90
2022,04,04,06,51,16.90
2022,04,04,06,52,17.00
2022,04,04,06,53,13.80
2022,04,04,06,54,16.10
2022,04,04,06,55,11.30
2022,04,04,06,56,19.40
2022,04,04,06,57,13.80
2022,04,04,06,58,14.00
2022,04,04,06,59,15.10
2022,04,04,07,00,13.30
2022,04,04,07,01,11.70
2022,04,04,07,02,12.40
2022,04,04,07,03,11.20
2022,04,04,07,04,15.20
2022,04,04,07,05,16.00
2022,04,04,07,06,14.90
2022,04,04,07,07,14.80
2022,04,04,07,08,14.50
2022,04,04,07,09,13.10
2022,04,04,07,10,11.20
2022,04,04,07,11,14.80
2022,04,04,07,12,11.70
2022,04,04,07,13,14.80
2022,04,04,07,14,13.60
2022,04,04,07,15,14.30
2022,04,04,07,16,13.40
2022,04,04,07,17,17.40
2022,04,04,07,18,17.30
2022,04,04,07,19,18.70
2022,04,04,07,20,18.40
2022,04,04,07,21,17.90
2022,04,04,07,22,17.80
2022,04,04,07,23,17.90
2022,04,04,07,24,12.60
2022,04,04,07,25,14.50
2022,04,04,07,26,20.00
2022,04,04,07,27,14.30
2022,04,04,07,28,17.20
2022,04,04,07,29,15.80
2022,04,04,07,30,15.90
2022,04,04,07,31,14.50
2022,04,04,07,32,13.70
2022,04,04,07,33,15.10
2022,04,04,07,34,17.60
2022,04,04,07,35,13.70
2022,04,04,07,36,14.00
2022,04,04,07,37,14.60
2022,04,04,07,38,16.30
2022,04,04,07,39,16.60
2022,04,04,07,40,13.80
2022,04,04,07,41,15.70
2022,04,04,07,42,16.60
2022,04,04,07,43,13.50
2022,04,04,07,44,17.30
2022,04,04,07,45,11.60
2022,04,04,07,46,15.90
2022,04,04,07,47,19.80
2022,04,04,07,48,17.50
2022,04,04,07,49,18.50
2022,04,04,07,50,13.90
2022,04,04,07,51,12.50
2022,04,04,07,52,17.30
2022,04,04,07,53,14.00
2022,04,04,07,54,15.60
2022,04,04,07,55,16.30
2022,04,04,07,56,17.30
2022,04,04,07,57,17.30
2022,04,04,07,58,18.20
2022,04,04,07,59,16.80
2022,04,04,08,00,14.00
2022,04,04,08,01,14.00
2022,04,04,08,02,17.60
2022,04,04,08,03,14.70
2022,04,04,08,04,14.00
2022,04,04,08,05,15.80
2022,04,04,08,06,17.60
2022,04,04,08,07,15.90
2022,04,04,08,08,14.30
2022,04,04,08,09,16.60
2022,04,04,08,10,15.90
2022,04,04,08,11,18.40
2022,04,04,08,12,16.00
2022,04,04,08,13,16.10
2022,04,04,08,14,14.90
2022,04,04,08,15,18.10
2022,04,04,08,16,15.70
2022,04,04,08,17,17.20
2022,04,04,08,18,20.60
2022,04,04,08,19,21.40
2022,04,04,08,20,17.10
2022,04,04,08,21,15.40
2022,04,04,08,22,15.50
2022,04,04,08,23,18.50
2022,04,04,08,24,15.10
2022,04,04,08,25,12.40
2022,04,04,08,26,14.60
2022,04,04,08,27,17.10
2022,04,04,08,28,16.40
2022,04,04,08,29,15.50
2022,04,04,08,30,18.30
2022,04,04,08,31,15.90
2022,04,04,08,32,15.20
2022,04,04,08,33,15.20
2022,04,04,08,34,12.90
2022,04,04,08,35,19.40
2022,04,04,08,36,8.90
2022,04,04,08,37,16.50
2022,04,04,08,38,19.20
2022,04,04,08,39,23.80
2022,04,04,08,40,17.40
2022,04,04,08,41,20.30
2022,04,04,08,42,18.10
2022,04,04,08,43,19.50
2022,04,04,08,44,17.70
2022,04,04,08,45,15.30
2022,04,04,08,46,15.30
2022,04,04,08,47,17.60
2022,04,04,08,48,17.80
2022,04,04,08,49,18.30
2022,04,04,08,50,14.80
2022,04,04,08,51,12.60
2022,04,04,08,52,13.70
2022,04,04,08,53,13.10
2022,04,04,08,54,14.60
2022,04,04,08,55,18.90
2022,04,04,08,56,15.90
2022,04,04,08,57,15.60
2022,04,04,08,58,17.90
2022,04,04,08,59,14.90
2022,04,04,09,00,15.10
2022,04,04,09,01,16.30
2022,04,04,09,02,20.60
2022,04,04,09,03,21.80
2022,04,04,09,04,21.70
2022,04,04,09,05,20.90
2022,04,04,09,06,17.60
2022,04,04,09,07,18.90
2022,04,04,09,08,15.20
2022,04,04,09,09,19.80
2022,04,04,09,10,21.20
2022,04,04,09,11,24.70
2022,04,04,09,12,21.50
2022,04,04,09,13,23.90
2022,04,04,09,14,18.70
2022,04,04,09,15,17.20
2022,04,04,09,16,20.00
2022,04,04,09,17,21.10
2022,04,04,09,18,17.60
2022,04,04,09,19,20.10
2022,04,04,09,20,17.20
2022,04,04,09,21,17.30
2022,04,04,09,22,18.10
2022,04,04,09,23,21.70
2022,04,04,09,24,15.60
2022,04,04,09,25,13.30
2022,04,04,09,26,12.20
2022,04,04,09,27,15.90
2022,04,04,09,28,14.00
2022,04,04,09,29,11.60
2022,04,04,09,30,11.30
2022,04,04,09,31,15.40
2022,04,04,09,32,16.60
2022,04,04,09,33,14.20
2022,04,04,09,34,14.90
2022,04,04,09,35,14.60
2022,04,04,09,36,14.60
2022,04,04,09,37,11.80
2022,04,04,09,38,15.70
2022,04,04,09,39,14.50
2022,04,04,09,40,13.90
2022,04,04,09,41,11.90
2022,04,04,09,42,13.40
2022,04,04,09,43,14.30
2022,04,04,09,44,17.30
2022,04,04,09,45,12.80
2022,04,04,09,46,10.80
2022,04,04,09,47,10.00
2022,04,04,09,48,10.00
2022,04,04,09,49,11.60
2022,04,04,09,50,11.90
2022,04,04,09,51,9.00
2022,04,04,09,52,8.30
2022,04,04,09,53,11.80
2022,04,04,09,54,19.70
2022,04,04,09,55,14.50
2022,04,04,09,56,10.60
2022,04,04,09,57,11.20
2022,04,04,09,58,9.60
2022,04,04,09,59,12.60
2022,04,04,10,00,10.50
2022,04,04,10,01,11.40
2022,04,04,10,02,14.90
2022,04,04,10,03,13.20
2022,04,04,10,04,10.20
2022,04,04,10,05,12.20
2022,04,04,10,06,7.30
2022,04,04,10,07,10.50
2022,04,04,10,08,8.50
2022,04,04,10,09,5.70
2022,04,04,10,10,5.30
2022,04,04,10,11,8.70
2022,04,04,10,12,8.20
2022,04,04,10,13,8.70
2022,04,04,10,14,9.60
2022,04,04,10,15,6.10
2022,04,04,10,16,6.40
2022,04,04,10,17,7.60
2022,04,04,10,18,8.00
2022,04,04,10,19,8.00
2022,04,04,10,20,10.10
2022,04,04,10,21,10.90
2022,04,04,10,22,12.50
2022,04,04,10,23,10.30
2022,04,04,10,24,10.40
2022,04,04,10,25,12.70
2022,04,04,10,26,13.10
2022,04,04,10,27,14.70
2022,04,04,10,28,11.70
2022,04,04,10,29,19.20
2022,04,04,10,30,14.60
2022,04,04,10,31,14.80
2022,04,04,10,32,13.40
2022,04,04,10,33,12.20
2022,04,04,10,34,12.50
2022,04,04,10,35,11.70
2022,04,04,10,36,11.70
2022,04,04,10,37,10.70
2022,04,04,10,38,13.00
2022,04,04,10,39,12.60
2022,04,04,10,40,10.40
2022,04,04,10,41,12.60
2022,04,04,10,42,17.00
2022,04,04,10,43,15.40
2022,04,04,10,44,13.90
2022,04,04,10,45,14.60
2022,04,04,10,46,12.50
2022,04,04,10,47,11.70
2022,04,04,10,48,14.10
2022,04,04,10,49,12.10
2022,04,04,10,50,12.70
2022,04,04,10,51,13.90
2022,04,04,10,52,13.30
2022,04,04,10,53,14.50
2022,04,04,10,54,21.10
2022,04,04,10,55,18.00
2022,04,04,10,56,13.50
2022,04,04,10,57,19.00
2022,04,04,10,58,17.30
2022,04,04,10,59,16.90
2022,04,04,11,00,20.40
2022,04,04,11,01,18.60
2022,04,04,11,02,18.80
2022,04,04,11,03,21.50
2022,04,04,11,04,26.20
2022,04,04,11,05,20.60
2022,04,04,11,06,24.10
2022,04,04,11,07,14.70
2022,04,04,11,08,17.20
2022,04,04,11,09,21.10
2022,04,04,11,10,26.40
2022,04,04,11,11,22.60
2022,04,04,11,12,28.00
2022,04,04,11,13,28.20
2022,04,04,11,14,26.80
2022,04,04,11,15,24.10
2022,04,04,11,16,25.50
2022,04,04,11,17,17.10
2022,04,04,11,18,22.30
2022,04,04,11,19,23.40
2022,04,04,11,20,25.20
2022,04,04,11,21,27.70
2022,04,04,11,22,29.20
2022,04,04,11,23,26.40
2022,04,04,11,24,28.20
2022,04,04,11,25,29.80
2022,04,04,11,26,25.60
2022,04,04,11,27,20.20
2022,04,04,11,28,18.40
2022,04,04,11,29,27.90
2022,04,04,11,30,28.60
2022,04,04,11,31,25.60
2022,04,04,11,32,21.20
2022,04,04,11,33,24.50
2022,04,04,11,34,21.70
2022,04,04,11,35,24.30
2022,04,04,11,36,25.10
2022,04,04,11,37,25.70
2022,04,04,11,38,24.90
2022,04,04,11,39,25.50
2022,04,04,11,40,24.20
2022,04,04,11,41,24.40
2022,04,04,11,42,18.90
2022,04,04,11,43,20.00
2022,04,04,11,44,25.60
2022,04,04,11,45,21.30
2022,04,04,11,46,22.90
2022,04,04,11,47,20.00
2022,04,04,11,48,20.90
2022,04,04,11,49,23.60
2022,04,04,11,50,23.90
2022,04,04,11,51,34.50
2022,04,04,11,52,25.70
2022,04,04,11,53,23.90
2022,04,04,11,54,21.80
2022,04,04,11,55,24.80
2022,04,04,11,56,22.10
2022,04,04,11,57,18.20
2022,04,04,11,58,24.90
2022,04,04,11,59,29.80
2022,04,04,12,00,33.20
2022,04,04,12,01,24.00
2022,04,04,12,02,24.40
2022,04,04,12,03,17.80
2022,04,04,12,04,21.80
2022,04,04,12,05,24.10
2022,04,04,12,06,35.90
2022,04,04,12,07,30.60
2022,04,04,12,08,34.50
2022,04,04,12,09,38.90
2022,04,04,12,10,25.80
2022,04,04,12,11,28.00
2022,04,04,12,12,22.00
2022,04,04,12,13,22.20
2022,04,04,12,14,19.70
2022,04,04,12,15,21.90
2022,04,04,12,16,18.20
2022,04,04,12,17,16.90
2022,04,04,12,18,16.50
2022,04,04,12,19,16.90
2022,04,04,12,20,18.10
2022,04,04,12,21,20.00
2022,04,04,12,22,14.50
2022,04,04,12,23,15.60
2022,04,04,12,24,22.00
2022,04,04,12,25,16.10
2022,04,04,12,26,19.10
2022,04,04,12,27,19.80
2022,04,04,12,28,20.50
2022,04,04,12,29,15.60
2022,04,04,12,30,14.90
2022,04,04,12,31,17.30
2022,04,04,12,32,16.90
2022,04,04,12,33,16.90
2022,04,04,12,34,17.60
2022,04,04,12,35,15.40
2022,04,04,12,36,18.20
2022,04,04,12,37,13.30
2022,04,04,12,38,17.00
2022,04,04,12,39,17.50
2022,04,04,12,40,19.40
2022,04,04,12,41,19.80
2022,04,04,12,42,20.60
2022,04,04,12,43,22.40
2022,04,04,12,44,26.30
2022,04,04,12,45,33.40
2022,04,04,12,46,30.70
2022,04,04,12,47,28.70
2022,04,04,12,48,32.60
2022,04,04,12,49,25.50
2022,04,04,12,50,31.60
2022,04,04,12,51,20.70
2022,04,04,12,52,25.30
2022,04,04,12,53,24.00
2022,04,04,12,54,26.10
2022,04,04,12,55,20.10
2022,04,04,12,56,23.50
2022,04,04,12,57,24.80
2022,04,04,12,58,28.20
2022,04,04,12,59,23.10
2022,04,04,13,00,20.00
2022,04,04,13,01,16.60
2022,04,04,13,02,20.10
2022,04,04,13,03,20.70
2022,04,04,13,04,18.90
2022,04,04,13,05,20.00
2022,04,04,13,06,18.50
2022,04,04,13,07,21.80
2022,04,04,13,08,17.40
2022,04,04,13,09,21.40
2022,04,04,13,10,24.10
2022,04,04,13,11,25.10
2022,04,04,13,12,22.50
2022,04,04,13,13,29.40
2022,04,04,13,14,25.60
2022,04,04,13,15,22.70
2022,04,04,13,16,13.40
2022,04,04,13,17,19.10
2022,04,04,13,18,14.40
2022,04,04,13,19,15.30
2022,04,04,13,20,14.50
2022,04,04,13,21,19.70
2022,04,04,13,22,17.60
2022,04,04,13,23,15.60
2022,04,04,13,24,16.70
2022,04,04,13,25,20.40
2022,04,04,13,26,17.00
2022,04,04,13,27,15.90
2022,04,04,13,28,14.40
2022,04,04,13,29,17.70
2022,04,04,13,30,14.70
2022,04,04,13,31,17.60
2022,04,04,13,32,16.70
2022,04,04,13,33,18.50
2022,04,04,13,34,18.10
2022,04,04,13,35,16.70
2022,04,04,13,36,17.60
2022,04,04,13,37,18.10
2022,04,04,13,38,14.80
2022,04,04,13,39,20.50
2022,04,04,13,40,15.80
2022,04,04,13,41,16.60
2022,04,04,13,42,17.20
2022,04,04,13,43,17.50
2022,04,04,13,44,16.80
2022,04,04,13,45,15.60
2022,04,04,13,46,17.80
2022,04,04,13,47,16.40
2022,04,04,13,48,16.00
2022,04,04,13,49,14.50
2022,04,04,13,50,16.70
2022,04,04,13,51,18.40
2022,04,04,13,52,13.00
2022,04,04,13,53,16.60
2022,04,04,13,54,15.20
2022,04,04,13,55,10.50
2022,04,04,13,56,14.50
2022,04,04,13,57,20.10
2022,04,04,13,58,24.90
2022,04,04,13,59,19.80
2022,04,04,14,00,25.70
2022,04,04,14,01,20.10
2022,04,04,14,02,25.00
2022,04,04,14,03,26.50
2022,04,04,14,04,31.30
2022,04,04,14,05,30.90
2022,04,04,14,06,27.70
2022,04,04,14,07,33.40
2022,04,04,14,08,36.30
2022,04,04,14,09,34.60
2022,04,04,14,10,24.40
2022,04,04,14,11,32.00
2022,04,04,14,12,26.80
2022,04,04,14,13,29.00
2022,04,04,14,14,22.20
2022,04,04,14,15,20.60
2022,04,04,14,16,27.60
2022,04,04,14,17,41.20
2022,04,04,14,18,27.40
2022,04,04,14,19,28.90
2022,04,04,14,20,26.50
2022,04,04,14,21,25.40
2022,04,04,14,22,24.40
2022,04,04,14,23,27.20
2022,04,04,14,24,26.40
2022,04,04,14,25,29.10
2022,04,04,14,26,25.70
2022,04,04,14,27,24.60
2022,04,04,14,28,19.70
2022,04,04,14,29,18.30
2022,04,04,14,30,22.50
2022,04,04,14,31,19.80
2022,04,04,14,32,21.70
2022,04,04,14,33,18.90
2022,04,04,14,34,19.90
2022,04,04,14,35,16.90
2022,04,04,14,36,19.80
2022,04,04,14,37,16.60
2022,04,04,14,38,21.10
2022,04,04,14,39,19.00
2022,04,04,14,40,21.90
2022,04,04,14,41,23.90
2022,04,04,14,42,23.20
2022,04,04,14,43,19.50
2022,04,04,14,44,21.00
2022,04,04,14,45,21.80
2022,04,04,14,46,15.10
2022,04,04,14,47,18.30
2022,04,04,14,48,21.10
2022,04,04,14,49,20.50
2022,04,04,14,50,20.30
2022,04,04,14,51,19.60
2022,04,04,14,52,18.20
2022,04,04,14,53,21.60
2022,04,04,14,54,23.60
2022,04,04,14,55,15.70
2022,04,04,14,56,25.40
2022,04,04,14,57,26.10
2022,04,04,14,58,21.40
2022,04,04,14,59,30.10
2022,04,04,15,00,22.00
2022,04,04,15,01,20.40
2022,04,04,15,02,23.80
2022,04,04,15,03,28.70
2022,04,04,15,04,17.40
2022,04,04,15,05,22.90
2022,04,04,15,06,22.60
2022,04,04,15,07,25.90
2022,04,04,15,08,19.60
2022,04,04,15,09,20.20
2022,04,04,15,10,22.10
2022,04,04,15,11,24.30
2022,04,04,15,12,17.90
2022,04,04,15,13,25.00
2022,04,04,15,14,20.00
2022,04,04,15,15,20.80
2022,04,04,15,16,30.30
2022,04,04,15,17,26.80
2022,04,04,15,18,25.70
2022,04,04,15,19,27.90
2022,04,04,15,20,32.60
2022,04,04,15,21,36.60
2022,04,04,15,22,36.80
2022,04,04,15,23,35.30
2022,04,04,15,24,38.80
2022,04,04,15,25,40.50
2022,04,04,15,26,32.20
2022,04,04,18,01,25.70
2022,04,04,18,02,19.50
2022,04,04,18,03,20.60
2022,04,04,18,04,18.20
2022,04,04,18,05,20.20
2022,04,04,18,06,23.80
2022,04,04,18,07,23.50
2022,04,04,18,08,24.10
2022,04,04,18,09,28.00
2022,04,04,18,10,29.60
2022,04,04,18,11,23.90
2022,04,04,18,12,20.70
2022,04,04,18,13,20.00
2022,04,04,18,14,22.90
2022,04,04,18,15,26.30
2022,04,04,18,16,31.20
2022,04,04,18,17,27.20
2022,04,04,18,18,26.80
2022,04,04,18,19,22.80
2022,04,04,18,20,25.70
2022,04,04,18,21,30.00
2022,04,04,18,22,32.20
2022,04,04,18,23,34.10
2022,04,04,18,24,25.70
2022,04,04,18,25,25.80
2022,04,04,18,26,24.60
2022,04,04,18,27,28.80
2022,04,04,18,28,25.20
2022,04,04,18,29,26.20
2022,04,04,18,30,25.40
2022,04,04,18,31,28.20
2022,04,04,18,32,28.80
2022,04,04,18,33,21.60
2022,04,04,18,34,17.50
2022,04,04,18,35,25.10
2022,04,04,18,36,23.80
2022,04,04,18,37,23.50
2022,04,04,18,38,24.10
2022,04,04,18,39,22.10
2022,04,04,18,40,23.70
2022,04,04,18,41,22.30
2022,04,04,18,42,15.90
2022,04,04,18,43,17.90
2022,04,04,18,44,16.50
2022,04,04,18,45,20.80
2022,04,04,18,46,19.10
2022,04,04,18,47,24.90
2022,04,04,18,48,22.90
2022,04,04,18,49,22.90
2022,04,04,18,50,31.30
2022,04,04,18,51,30.70
2022,04,04,18,52,29.80
2022,04,04,18,53,32.60
2022,04,04,18,54,25.10
2022,04,04,18,55,26.20
2022,04,04,18,56,24.80
2022,04,04,18,57,20.60
2022,04,04,18,58,19.10
2022,04,04,18,59,25.50
2022,04,04,19,00,23.80
2022,04,04,19,01,26.60
2022,04,04,19,02,17.70
2022,04,04,19,03,23.20
2022,04,04,19,04,22.00
2022,04,04,19,05,24.10
2022,04,04,19,06,23.60
2022,04,04,19,07,26.10
2022,04,04,19,08,18.10
2022,04,04,19,09,24.50
2022,04,04,19,10,16.40
2022,04,04,19,11,19.80
2022,04,04,19,12,18.00
2022,04,04,19,13,26.60
2022,04,04,19,14,18.30
2022,04,04,19,15,20.10
2022,04,04,19,16,20.90
2022,04,04,19,17,17.90
2022,04,04,19,18,17.20
2022,04,04,19,19,13.90
2022,04,04,19,20,14.40
2022,04,04,19,21,16.30
2022,04,04,19,22,15.40
2022,04,04,19,23,11.60
2022,04,04,19,24,13.20
2022,04,04,19,25,12.50
2022,04,04,19,26,11.80
2022,04,04,19,27,15.00
2022,04,04,19,28,14.20
2022,04,04,19,29,13.10
2022,04,04,19,30,16.20
2022,04,04,19,31,16.90
2022,04,04,19,32,18.10
2022,04,04,19,33,11.80
2022,04,04,19,34,12.50
2022,04,04,19,35,12.50
2022,04,04,19,36,10.60
2022,04,04,19,37,13.40
2022,04,04,19,38,14.50
2022,04,04,19,39,15.30
2022,04,04,19,40,15.20
2022,04,04,19,41,17.80
2022,04,04,19,42,17.40
2022,04,04,19,43,13.00
2022,04,04,19,44,13.80
2022,04,04,19,45,12.30
2022,04,04,19,46,15.30
2022,04,04,19,47,15.90
2022,04,04,19,48,20.40
2022,04,04,19,49,14.50
2022,04,04,19,50,16.50
2022,04,04,19,51,13.60
2022,04,04,19,52,11.10
2022,04,04,19,53,18.40
2022,04,04,19,54,14.60
2022,04,04,19,55,19.50
2022,04,04,19,56,16.80
2022,04,04,19,57,15.00
2022,04,04,19,58,13.40
2022,04,04,19,59,20.40
2022,04,04,20,00,20.20
2022,04,04,20,01,17.40